This demonstration page uses our WeatherBlox Daily Observations layout. Learn more.

Left ArrowRight Arrow

Hourly Observations for August 5, 2022

Temp ( °F °C ) Dew Point ( °F °C ) Humidity (%) Winds ( mph kmh ) Pressure ( in mb ) Visibility ( mi km ) Precip ( " mm )
12:56 am 00:56 Clear 73 22.5 60 15.8 66 66 ESE 3 6 30.03 1017 10 16 0.00 0.00
1:56 am 01:56 undefined 71 21.9 60 15.7 68 68 Calm 30.03 1017 10 16 0.00 0.00
2:56 am 02:56 undefined 70 21.1 60 15.6 71 71 Calm 30.03 1017 10 16 0.00 0.00
2:59 am 02:59 Partly Cloudy 72 22 61 16 69 69 Calm 29.97 1015 10 16 0.00 0.00
3:56 am 03:56 Clear 72 22 61 16 69 69 Calm 29.98 1015 10 16 0.00 0.00
4:56 am 04:56 undefined 68 20.1 60 15.7 76 76 E 5 7 30.03 1017 10 16 0.00 0.00
5:56 am 05:56 undefined 67 19.6 60 15.6 78 78 E 5 7 30.02 1017 10 16 0.00 0.00
6:56 am 06:56 Sunny 68 20 61 16 78 78 SE 3 6 30.02 1017 10 16 0.00 0.00
6:58 am 06:58 Sunny 68 20 61 16 78 78 SE 3 6 30.02 1017 10 16 0.00 0.00
7:56 am 07:56 Mostly Sunny 72 22 61 16 69 69 SSE 6 9 30.03 1017 10 16 0.00 0.00
8:56 am 08:56 Mostly Sunny 75 24 63 17 65 65 undefined N/A 29.98 1015 10 16 0.00 0.00
9:56 am 09:56 Mostly Sunny 81 27 66 19 62 62 VRB 3 6 29.96 1015 10 16 0.00 0.00
10:56 am 10:56 Sunny 86 30 70 21 59 59 SSE 10 17 29.95 1014 10 16 0.00 0.00
11:56 am 11:56 Sunny 88 31 70 21 55 55 SSE 13 20 29.95 1014 10 16 0.00 0.00
12:56 pm 12:56 Partly Cloudy 90 32 72 22 55 55 SSE 7 11 29.93 1014 10 16 0.00 0.00
1:56 pm 13:56 Mostly Sunny 93 34 68 20 44 44 SSE 10 17 29.98 1015 10 16 0.00 0.00
2:56 pm 14:56 Sunny 95 35 68 20 41 41 SSW 10 17 29.97 1015 10 16 0.00 0.00
3:56 pm 15:56 Sunny 95 35 67 19.3 40 40 SSE 13 20 29.95 1014 10 16 0.00 0.00
4:56 pm 16:56 Sunny 95 34.8 67 19.6 41 41 SSE 14 22 29.93 1014 9 14 0.00 0.00
5:56 pm 17:56 Sunny 93 33.8 70 20.9 47 47 SE 14 22 29.92 1013 9 14 0.00 0.00
6:56 pm 18:56 Sunny 91 32.8 70 21 50 50 SE 16 26 29.92 1013 10 16 0.00 0.00
7:56 pm 19:56 Sunny 88 31.1 71 21.8 58 58 SE 10 17 29.91 1013 10 16 0.00 0.00
8:56 pm 20:56 Clear 85 29.4 71 21.6 63 63 SE 10 17 29.86 1011 10 16 0.00 0.00
9:56 pm 21:56 Mostly Cloudy 83 28.1 71 21.6 68 68 SE 9 15 29.88 1012 10 16 0.00 0.00
10:56 pm 22:56 Clear 81 27.3 71 21.5 71 71 SE 9 15 29.89 1012 10 16 0.00 0.00
11:56 pm 23:56 Clear 79 26.1 71 21.5 76 76 SE 7 11 29.90 1013 10 16 0.00 0.00

Powered by AerisWeather